Location: ?????
(33.6267°N, 35.4675°E)
Time: 08:33:45
(UTC+00:00)

Cosmos 2360 - Pass Details

Date: 12 November 2019
Orbit: 845 x 857 km, 70.8° (Epoch: 15 December)

Event Time Altitude Azimuth Distance (km) Brightness Sun altitude
Rises 16:16:03 0° 188° (S) 3,390 7.5 -20.7°
Reaches altitude 10° 16:18:31 10° 184° (S) 2,460 6.7 -21.2°
Maximum altitude 16:24:02 57° 107° (ESE) 997 4.2 -22.3°
Enters shadow 16:25:06 49° 66° (ENE) 1,092 4.3 -22.5°
